CES7866 CYXY-UHMA

Flight info

Callsign CES7866
Flight time N/A
Altitude 35000
Route YXY J515 ORT J502 OTZ B244 AKISA
Aircraft B738/L-SDE3FGHIRWY/LB1

Departure

Time 2026-04-26 06:42
Airport Whitehorse / Erik Nielsen International Airport (CYXY)

Arrival

Time N/A
Airport Ugolny Yuri Ryktheu Airport (UHMA)
Time Latitude Longitude Altitude Speed Heading
2026-04-26 06:42 60.82870 -135.17946 8663 ft 284 kts 296°
2026-04-26 06:42 60.83233 -135.21832 9626 ft 287 kts 263°
2026-04-26 06:42 60.82521 -135.25629 10476 ft 295 kts 233°
2026-04-26 06:43 60.80901 -135.28371 10826 ft 320 kts 204°
2026-04-26 06:43 60.78672 -135.29176 11255 ft 340 kts 176°
2026-04-26 06:43 60.77805 -135.28914 11368 ft 348 kts 166°
2026-04-26 06:43 60.76783 -135.28178 11513 ft 358 kts 154°
2026-04-26 06:44 60.74767 -135.24959 11784 ft 380 kts 129°
2026-04-26 06:44 60.73487 -135.20154 12186 ft 396 kts 110°
2026-04-26 06:44 60.72485 -135.14893 12787 ft 405 kts 117°
2026-04-26 06:44 60.70782 -135.10365 13500 ft 410 kts 139°
2026-04-26 06:45 60.68349 -135.07486 14245 ft 414 kts 161°
2026-04-26 06:45 60.65492 -135.06708 14964 ft 418 kts 184°
2026-04-26 06:45 60.62680 -135.08228 15657 ft 422 kts 206°
2026-04-26 06:45 60.60362 -135.11772 16310 ft 426 kts 228°
2026-04-26 06:46 60.58830 -135.16904 16944 ft 430 kts 250°
2026-04-26 06:46 60.58320 -135.22850 17563 ft 434 kts 270°
2026-04-26 06:46 60.58677 -135.28969 18173 ft 438 kts 283°
2026-04-26 06:46 60.59498 -135.34903 18746 ft 441 kts 286°
2026-04-26 06:47 60.60247 -135.40916 19300 ft 445 kts 282°
2026-04-26 06:47 60.60662 -135.47157 19845 ft 449 kts 277°
2026-04-26 06:47 60.61302 -135.53365 20349 ft 453 kts 289°
2026-04-26 06:47 60.62722 -135.59096 20857 ft 456 kts 306°
2026-04-26 06:48 60.64860 -135.63748 21346 ft 459 kts 322°
2026-04-26 06:48 60.67598 -135.67041 21818 ft 462 kts 338°
2026-04-26 06:48 60.70737 -135.68651 22277 ft 465 kts 354°
2026-04-26 06:48 60.73956 -135.68399 22714 ft 468 kts 10°
2026-04-26 06:49 60.77159 -135.66960 23169 ft 470 kts 10°
2026-04-26 06:49 60.80403 -135.66493 23522 ft 474 kts 356°
2026-04-26 06:49 60.83622 -135.67809 23934 ft 477 kts 340°
2026-04-26 06:49 60.86563 -135.70886 24320 ft 479 kts 324°
2026-04-26 06:50 60.88981 -135.75481 24694 ft 482 kts 309°
2026-04-26 06:50 60.90787 -135.81297 25084 ft 484 kts 297°
2026-04-26 06:50 60.92339 -135.87453 25453 ft 487 kts 298°
2026-04-26 06:50 60.94035 -135.93420 25853 ft 488 kts 302°
2026-04-26 06:51 60.95892 -135.99208 26306 ft 489 kts 304°
2026-04-26 06:51 60.99817 -136.10524 27230 ft 488 kts 306°
2026-04-26 06:51 61.01835 -136.16136 27697 ft 487 kts 307°
2026-04-26 06:52 61.03842 -136.21642 28155 ft 487 kts 307°
2026-04-26 06:52 61.05904 -136.27245 28619 ft 486 kts 307°
2026-04-26 06:52 61.07931 -136.32724 29069 ft 485 kts 308°
2026-04-26 06:52 61.09965 -136.38203 29513 ft 484 kts 308°
2026-04-26 06:53 61.11997 -136.43671 29949 ft 483 kts 308°
2026-04-26 06:53 61.14052 -136.49196 30383 ft 482 kts 308°
2026-04-26 06:53 61.16072 -136.54631 30804 ft 481 kts 308°
2026-04-26 06:53 61.18105 -136.60104 31219 ft 480 kts 308°
2026-04-26 06:54 61.20138 -136.65587 31630 ft 480 kts 307°
2026-04-26 06:54 61.22142 -136.70998 32025 ft 479 kts 307°
2026-04-26 06:54 61.24170 -136.76486 32424 ft 478 kts 307°
2026-04-26 06:54 61.26183 -136.81943 32831 ft 477 kts 307°
2026-04-26 06:55 61.28199 -136.87421 33227 ft 476 kts 307°
2026-04-26 06:55 61.30183 -136.92819 33616 ft 476 kts 307°
2026-04-26 06:55 61.32180 -136.98268 33998 ft 475 kts 307°
2026-04-26 06:55 61.34170 -137.03711 34376 ft 474 kts 307°
2026-04-26 06:56 61.36153 -137.09146 34745 ft 473 kts 307°
2026-04-26 06:56 61.38139 -137.14600 34995 ft 474 kts 307°
2026-04-26 06:56 61.42070 -137.25423 34999 ft 466 kts 307°
2026-04-26 06:57 61.45950 -137.36162 35000 ft 463 kts 307°
2026-04-26 06:57 61.49810 -137.46889 35000 ft 467 kts 307°
2026-04-26 06:58 61.53698 -137.57744 35000 ft 466 kts 307°
2026-04-26 06:58 61.56273 -137.64966 35000 ft 466 kts 307°
2026-04-26 06:59 61.60764 -137.77614 34999 ft 465 kts 306°
2026-04-26 06:59 61.65239 -137.90294 34999 ft 466 kts 306°
2026-04-26 07:00 61.69071 -138.01207 34999 ft 466 kts 306°
2026-04-26 07:00 61.72918 -138.12216 35000 ft 466 kts 306°
2026-04-26 07:01 61.76714 -138.23129 35000 ft 466 kts 306°
2026-04-26 07:01 61.80523 -138.34134 35000 ft 466 kts 306°
2026-04-26 07:02 61.84322 -138.45163 35000 ft 466 kts 306°
2026-04-26 07:02 61.88119 -138.56238 35000 ft 466 kts 306°
2026-04-26 07:03 61.91893 -138.67297 35000 ft 466 kts 306°
2026-04-26 07:03 61.95669 -138.78420 35000 ft 466 kts 306°
2026-04-26 07:04 61.99427 -138.89540 35000 ft 466 kts 306°
2026-04-26 07:04 62.03187 -139.00719 35000 ft 466 kts 306°
2026-04-26 07:05 62.06923 -139.11885 35000 ft 466 kts 306°
2026-04-26 07:05 62.10661 -139.23106 35000 ft 466 kts 306°
2026-04-26 07:06 62.14400 -139.34389 35000 ft 466 kts 306°
2026-04-26 07:06 62.18117 -139.45659 35000 ft 466 kts 306°
2026-04-26 07:07 62.21826 -139.56959 35000 ft 466 kts 306°
2026-04-26 07:07 62.25514 -139.68253 35000 ft 466 kts 304°
2026-04-26 07:08 62.29223 -139.79666 35000 ft 466 kts 304°
2026-04-26 07:08 62.32884 -139.90988 35000 ft 466 kts 304°
2026-04-26 07:09 62.36489 -140.02191 35000 ft 466 kts 304°
2026-04-26 07:09 62.40156 -140.13644 35000 ft 466 kts 304°
2026-04-26 07:11 62.49270 -140.42362 35000 ft 466 kts 304°
2026-04-26 07:11 62.52882 -140.53839 35000 ft 466 kts 304°
2026-04-26 07:12 62.56500 -140.65396 35000 ft 466 kts 304°
2026-04-26 07:12 62.60109 -140.76981 35000 ft 466 kts 304°
2026-04-26 07:13 62.63632 -140.88348 35000 ft 466 kts 304°
2026-04-26 07:13 62.67208 -140.99944 35000 ft 466 kts 304°
2026-04-26 07:14 62.70807 -141.11675 35000 ft 466 kts 304°
2026-04-26 07:14 62.74367 -141.23340 35000 ft 466 kts 304°
2026-04-26 07:15 62.77933 -141.35084 35000 ft 466 kts 304°
2026-04-26 07:15 62.81489 -141.46858 35000 ft 466 kts 304°
2026-04-26 07:16 62.85017 -141.58603 35000 ft 466 kts 304°
2026-04-26 07:16 62.88558 -141.70451 35000 ft 466 kts 303°
2026-04-26 07:17 62.92062 -141.82242 35000 ft 466 kts 303°
2026-04-26 07:17 62.95612 -141.94106 35000 ft 466 kts 305°
2026-04-26 07:18 62.99526 -142.05353 35001 ft 466 kts 308°
2026-04-26 07:18 63.03429 -142.16586 35000 ft 466 kts 307°
2026-04-26 07:19 63.07330 -142.27954 35000 ft 466 kts 307°
2026-04-26 07:19 63.11206 -142.39323 35000 ft 466 kts 307°
2026-04-26 07:20 63.15068 -142.50714 35000 ft 466 kts 307°
2026-04-26 07:20 63.18936 -142.62192 35000 ft 466 kts 307°
2026-04-26 07:21 63.22767 -142.73619 35000 ft 466 kts 306°
2026-04-26 07:21 63.26623 -142.85182 35000 ft 466 kts 306°
2026-04-26 07:22 63.30442 -142.96695 35000 ft 466 kts 306°
2026-04-26 07:22 63.34260 -143.08263 35000 ft 466 kts 306°
2026-04-26 07:23 63.38068 -143.19859 35000 ft 466 kts 306°
2026-04-26 07:23 63.41865 -143.31480 35000 ft 466 kts 306°
2026-04-26 07:24 63.45652 -143.43133 35000 ft 466 kts 306°
2026-04-26 07:24 63.49416 -143.54776 35000 ft 466 kts 306°
2026-04-26 07:25 63.53183 -143.66484 35000 ft 466 kts 305°
2026-04-26 07:25 63.56940 -143.78224 35000 ft 466 kts 305°
2026-04-26 07:26 63.60691 -143.90006 35000 ft 466 kts 305°
2026-04-26 07:26 63.64429 -144.01805 35000 ft 466 kts 305°
2026-04-26 07:27 63.68178 -144.13705 35000 ft 466 kts 305°
2026-04-26 07:27 63.71878 -144.25513 35000 ft 466 kts 305°